Fullerton, CA

4:16 PM PDT on April 28, 2017 (GMT -0700)
Fullerton Municipal

Weather History for KFUL - January, 2014

Change the Weather History Date:

Sunday, January 12, 2014

  Actual Average Record
Temperature  
Mean Temperature 61 °F 56 °F  
Max Temperature 72 °F 68 °F 89 °F (2009)
Min Temperature 50 °F 44 °F 35 °F (2013)
Degree Days  
Heating Degree Days 4 9  
Month to date heating degree days 65 108  
Since 1 July heating degree days 346 548  
Cooling Degree Days 0 0  
Month to date cooling degree days 0 0  
Year to date cooling degree days 0 0  
Growing Degree Days 11 (Base 50)    
Moisture  
Dew Point 48 °F    
Average Humidity 66    
Maximum Humidity 96    
Minimum Humidity 35    
Precipitation  
Precipitation 0.00 in 0.11 in 0.93 in (2017)
Month to date precipitation 0.00 1.32  
Year to date precipitation 0.00 1.32  
Since 1 July precipitation 1.31  
Snow  
Snow 0.00 in - - ()
Month to date snowfall 0.0  
Year to date snowfall 0.0  
Snow Depth 0.00 in    
Sea Level Pressure  
Sea Level Pressure 30.08 in    
Wind  
Wind Speed 2 mph (ENE)    
Max Wind Speed 8 mph    
Max Gust Speed 9 mph    
Visibility 3 miles    
Events Fog    
T = Trace of Precipitation, MM = Missing Value Source: NWS Daily Summary

Daily Weather History Graph

Daily Weather History Graph

Search for Another Location

Airport or City:

Trip Planner

Search our weather history database for the weather conditions in past years. The results will help you decide how hot, cold, wet, or windy it might be!

Date:

Astronomy

Jan. 12, 2014 Rise Set
Actual Time 6:57 AM PST 5:03 PM PST
Civil Twilight 6:30 AM PST 5:30 PM PST
Nautical Twilight 5:59 AM PST 6:01 PM PST
Astronomical Twilight 5:29 AM PST 6:31 PM PST
Moon 2:34 PM PST (1/12) 4:01 AM PST (1/12)
Length of Visible Light 11h 00m
Length of Day
10h 06m
Waxing Gibbous, 90% of the Moon is Illuminated
Jan 12
Waxing Gibbous
Jan 15
Full
Jan 23
Last Quarter
Jan 30
New
Feb 6
First Quarter

Hourly Weather History & Observations

Time (PST) Temp. Dew Point Humidity Pressure Visibility Wind Dir Wind Speed Gust Speed Precip Events Conditions
12:53 AM 52.0 °F 46.9 °F 83% 30.04 in 5.0 mi Calm Calm - N/A   Haze
1:53 AM 51.1 °F 46.9 °F 86% 30.05 in 4.0 mi Calm Calm - N/A   Clear
2:01 AM 51.8 °F 46.4 °F 82% 30.05 in 4.0 mi Calm Calm - N/A   Haze
2:27 AM 51.8 °F 46.4 °F 82% 30.05 in 4.0 mi SE 3.5 mph - N/A   Haze
2:53 AM 51.1 °F 46.0 °F 83% 30.05 in 5.0 mi East 3.5 mph - N/A   Haze
3:53 AM 54.0 °F 51.1 °F 90% 30.06 in 2.5 mi ENE 4.6 mph - N/A   Overcast
4:46 AM 53.6 °F 50.0 °F 88% 30.04 in 1.8 mi Calm Calm - N/A   Scattered Clouds
4:53 AM 53.1 °F 50.0 °F 89% 30.05 in 1.8 mi Calm Calm - N/A   Scattered Clouds
5:09 AM 51.8 °F 48.2 °F 88% 30.04 in 1.8 mi Calm Calm - N/A   Mostly Cloudy
5:43 AM 51.8 °F 48.2 °F 88% 30.05 in 0.5 mi Calm Calm - N/A Fog Fog
5:53 AM 52.0 °F 50.0 °F 93% 30.05 in 0.2 mi Calm Calm - N/A Fog Fog
6:12 AM 51.8 °F 51.8 °F 100% 30.06 in 1.2 mi ENE 3.5 mph - N/A   Overcast
6:30 AM 51.8 °F 51.8 °F 100% 30.06 in 1.5 mi ESE 3.5 mph - N/A   Overcast
6:53 AM 53.1 °F 50.0 °F 89% 30.07 in 2.0 mi East 5.8 mph - N/A   Overcast
7:15 AM 53.6 °F 51.8 °F 94% 30.07 in 1.5 mi East 4.6 mph - N/A   Overcast
7:53 AM 53.1 °F 50.0 °F 89% 30.08 in 1.5 mi East 5.8 mph - N/A   Overcast
8:53 AM 54.0 °F 50.0 °F 86% 30.12 in 2.0 mi East 3.5 mph - N/A   Overcast
9:53 AM 57.0 °F 51.1 °F 81% 30.13 in 2.5 mi East 4.6 mph - N/A   Haze
10:07 AM 57.2 °F 51.8 °F 82% 30.12 in 3.0 mi East 4.6 mph - N/A   Haze
10:20 AM 59.0 °F 51.8 °F 77% 30.12 in 3.0 mi Calm Calm - N/A   Haze
10:53 AM 59.0 °F 51.1 °F 75% 30.12 in 3.0 mi NNE 3.5 mph - N/A   Haze
11:53 AM 62.1 °F 50.0 °F 65% 30.09 in 4.0 mi WNW 4.6 mph - N/A   Haze
12:53 PM 66.0 °F 48.9 °F 54% 30.06 in 4.0 mi West 3.5 mph - N/A   Haze
1:53 PM 66.9 °F 48.0 °F 51% 30.04 in 4.0 mi Calm Calm - N/A   Haze
2:53 PM 68.0 °F 45.0 °F 43% 30.04 in 4.0 mi Calm Calm - N/A   Haze
3:53 PM 71.1 °F 43.0 °F 36% 30.04 in 4.0 mi Variable 3.5 mph - N/A   Haze
4:53 PM 69.1 °F 43.0 °F 39% 30.05 in 4.0 mi Calm Calm - N/A   Haze
5:53 PM 64.0 °F 44.1 °F 48% 30.07 in 5.0 mi Calm Calm - N/A   Haze
6:53 PM 61.0 °F 44.1 °F 54% 30.09 in 5.0 mi Calm Calm - N/A   Haze
7:53 PM 59.0 °F 46.0 °F 62% 30.11 in 5.0 mi Calm Calm - N/A   Haze
8:53 PM 55.0 °F 44.1 °F 67% 30.12 in 5.0 mi Calm Calm - N/A   Haze
9:53 PM 53.1 °F 44.1 °F 71% 30.14 in 6.0 mi Calm Calm - N/A   Haze
10:53 PM 53.1 °F 45.0 °F 74% 30.15 in 5.0 mi West 4.6 mph - N/A   Haze
11:53 PM 50.0 °F 43.0 °F 77% 30.14 in 4.0 mi Calm Calm - N/A   Haze